Regional Weather Roundup
Issued by NWS Lake Charles, LA

Home | Current Version | Previous Version | Text Only | Print | Product List | Glossary On
Versions: 1 2 3 4 5 6 7 8 9 10 11 12 13 14 15 16 17 18 19 20 21 22 23 24 25 26 27 28 29 30 31 32 33 34 35 36 37 38 39 40 41 42 43 44 45 46 47 48 49 50
000
ASUS44 KLCH 262110
RWRLCH
RWRLCH
REGIONAL WEATHER ROUNDUP
NATIONAL WEATHER SERVICE LAKE CHARLES LA
300 PM CST WED NOV 26 2014

Note: "fair" indicates few or no clouds below 12,000 feet with no
significant weather and/or obstructions to visibility.


ACROSS SOUTHEAST TEXAS

CITY           SKY/WX    TMP DP  RH WIND       PRES   REMARKS
BEAUMONT       SUNNY     71  37  28 SW15G23   30.16F
BEAUMONT CITY    N/A     70  40  33 SW10G21   30.18R
ORANGE         CLEAR     70  36  28 SW9G16    30.18S
JASPER         SUNNY     69  35  28 SW8       30.17R
$$

ACROSS CENTRAL LOUISIANA

CITY           SKY/WX    TMP DP  RH WIND       PRES   REMARKS
LEESVILLE      SUNNY     68  36  30 W13G21    30.13R
FULLERTON        N/A     71  36  27 W8        30.11R
ALEXANDRIA INT SUNNY     68  39  34 SW18G25   30.12R
ESLER FIELD    SUNNY     70  36  28 SW17G30   30.12R
DERIDDER         N/A     70  33  26 W10G18    30.17R
OAKDALE        CLEAR     71  36  28 W10G20    30.15R
OPELOUSAS        N/A     69  41  36 SW10      30.15S
$$

ACROSS SOUTHWEST AND SOUTH CENTRAL LOUISIANA

CITY           SKY/WX    TMP DP  RH WIND       PRES   REMARKS
SULPHUR        CLEAR     71  41  34 SW16G23   30.18R
LAKE CHARLES   SUNNY     69  46  43 SW13G23   30.17S
CHENNAULT INT  SUNNY     70  37  30 SW14G24   30.17
CAMERON PHI    CLEAR     64  54  68 SW10G17   30.22S
DEQUINCY         N/A     69  36  28 SW9       30.16R
JENNINGS         N/A     68  43  41 SW15G22   30.17S
LAFAYETTE      SUNNY     69  37  30 SW17G29   30.17S
NEW IBERIA     SUNNY     69  37  30 SW17G24   30.18F
ABBEVILLE        N/A     68  38  33 SW17G24   30.18S
PATTERSON      SUNNY     68  43  40 W18G24    30.22S
SALT POINT       N/A     68  53  58 VRB3      30.20F
$$

SELECTED SITES ACROSS THE REGION

CITY           SKY/WX    TMP DP  RH WIND       PRES   REMARKS
HOUSTON BUSH   SUNNY     72  35  25 W12       30.17R
HOUSTON HOBBY  SUNNY     71  34  25 SW17      30.18R
GALVESTON      SUNNY     69  45  41 SW21G30   30.19F
COLLEGE STAT   SUNNY     72  33  24 W7        30.16R
CONROE         SUNNY     71  32  23 W8        30.17R
HUNTSVILLE     SUNNY     71  35  26 W13G18    30.16R
LUFKIN         SUNNY     73  34  23 W10G21    30.14S
SHREVEPORT     MOSUNNY   67  29  24 W16       30.11R
MONROE         SUNNY     69  34  27 W22       30.07R
NATCHEZ MS     SUNNY     66  37  34 SW17G29   30.11S
BATON ROUGE    SUNNY     70  34  26 W17G25    30.15S
N.O. INTL ARPT MOSUNNY   69  35  28 SW15G22   30.18F
SLIDELL        SUNNY     65  34  31 S12       30.17F
$$

MARINE REPORTS

STATION/POSITION TIME  TEMP    WIND        PRES    VSBY  WAVE
                       AIR SEA DIR/SP/G                  HT/PER
                 (UTC) (F)     (DEG/KT/KT) (MB)    (MI)  (FT/S)
BUOY 30 S HIGH I 2100   63 61  230/ 17/ 21 1022.0F         3/ 4
SEA RIM ST PARK  2100   64     230/ 11/ 13 1022.8R
PORT ARTHUR      2100      59  220/ 16/ 18 1021.7S
SABINE PASS N    2100   67 60  240/ 11/ 22 1021.9S
TEXAS POINT      NOT AVBL
CALCASIEU PASS   2100   62 58  250/ 11/ 13   N/A
LK CHARLES BEACH 2100   68 60              1021.4R
MARSH ISLAND     NOT AVBL
FRESH WATER LOCK 2100   66 58  230/  9/ 17 1022.7R
AMERADA PASS     2100   65 55  210/  4/  8 1022.9S
$$


USA.gov is the U.S. government's official web portal to all federal, state and local government web resources and services.